Location: Unspecified
(51.5640°S, 0.0000°E)
Time: 01:13:58
(UTC+00:00)

USA 267 - Pass Details

Date: 29 December 1899
Orbit: 1101 x 1107 km, 123.0° (Epoch: 10 January)

Event Time Altitude Azimuth Distance (km) Brightness Sun altitude
Rises 23:33:44 0° 88° (E) 3,937 6.1 -15.2°
Reaches altitude 10° 23:36:14 10° 91° (E) 2,980 5.5 -15.2°
Maximum altitude 23:42:41 61° 169° (SSE) 1,254 3.9 -15.2°
Drops below altitude 10° 23:49:10 10° 246° (WSW) 2,993 5.8 -15.2°
Sets 23:51:42 0° 249° (WSW) 3,956 6.4 -15.2°
